Location: Betz
(49.1556°N, 2.9558°E)
Time: 06:04:56
(UTC+00:00)

Cosmos 2360 Rocket - Pass Details

Date: 18 September 2019
Orbit: 833 x 846 km, 71.0° (Epoch: 19 October)

Event Time Altitude Azimuth Distance (km) Brightness Sun altitude
Rises 18:45:29 0° 324° (NW) 3,403 6.2 -8.9°
Reaches altitude 10° 18:48:10 10° 315° (NW) 2,466 5.6 -9.3°
Maximum altitude 18:53:03 31° 255° (WSW) 1,438 4.1 -10.1°
Drops below altitude 10° 18:57:56 10° 195° (SSW) 2,458 4.6 -10.9°
Sets 19:00:37 0° 185° (S) 3,390 5.2 -11.3°
